Showing default

FENGYUN 1C, 25730

Orbit data source: Space-Track

FENGYUN 1C, 25730 is a payload satellite owned by CNMSC (CN) in SSO that was launched on Mon, 10 May 1999 UTC via a CHANG ZHENG 4B launch vehicle from the Taiyaun Space Center, China (TSC). Payload-class satellites include a variety of spacecraft equipped with specific instruments for various scientific and technological missions. These include communications satellites like Starlink; space stations such as the ISS; scientific satellites like the Hubble; Earth observation satellites from companies like Planet Labs, Umbra, and HawkEye 360; GPS; miniature CubeSats for education and research; and military/defense satellites.

Loading next visibility...
Identifier
25730, 1999-025A
Orbit
SSO
Country
Flag of CNCN / PRC
Related business
Manufacturer
SISE
Mission
Non-operational Civil Imaging
Bus & Motor
FY-1, Unknown motor
Mass
958 kg wet, ~958 kg dry
Launch date (UTC)
1999-05-10 (27 years ago)
Launch vehicle
CHANG ZHENG 4B
Launch site
Taiyaun Space Center, China (TSC)
Object type
Payload
Rocket body
Debris
Shape & HBR
Box + 2 Pan, 4.3 m
Radar Cross Section
5.659 m², Medium (>0.1 m² and < 1m²)

Expand to show TLE details & history
Last TLE update: 6 hours ago

TLE from 6 hours ago
0 FENGYUN 1C
1 25730U 99025A   26036.74424788  .00005036  00000-0  21076-2 0  9995
2 25730  98.8755 108.5290 0010545 262.3338  97.6644 14.26474798379218
Epoch: 2026-02-05T17:51Z
TLE epoch observation values (Epoch: 2026-02-05T17:51:43.016Z)
Latitude
-0.00005°
Longitude
64.70769°
Altitude
807.474 km
Speed
7.449 km/s
True Right ascension
07h 14m 06s
True Declination
0° 00' 00"
Sunlit
Object was in full shadow at epoch
Visualization orbit readout
Latitude
Unknown
Longitude
Unknown
Altitude
Unknown
Speed
Unknown
Apparent Right ascension
Unknown
Apparent Declination
Unknown
Sunlit
N/A
Visualization observer readout
Local Sidereal Time
02:14:54
Azimuth
Unknown
Elevation
Unknown
Doppler factor
Unknown
Orbital elements
Apogee altitude
808.266 km
Perigee altitude
793.126 km
Semi-major axis
7,178.833 km
Eccentricity
0.00105
Inclination
98.8755°
RAAN
108.529°
Arg. of periapsis
262.3338°
True anomaly
97.78414°
Mean anomaly
97.6644°
Eccentric anomaly
97.72427°
Mean motion
3.56831 °/min
Orbital period
100.89 mins
BSTAR
0.0021076
Loading maneuver chart data...
Computing Atmospheric mass density...

Documentation

Showing up to 5 results
|